Regional Weather Roundup
Issued by NWS

Home | Current Version | Previous Version | Text Only | Print | Product List | Glossary Off
Versions: 1 2 3 4 5 6 7 8 9 10 11 12 13 14 15 16 17 18 19 20 21 22 23 24 25 26 27 28 29 30 31 32 33 34 35 36 37 38 39 40 41 42 43 44 45 46 47 48 49 50

207
ASUS43 KOAX 020010
RWRNE

WEATHER ROUNDUP FOR NEBRASKA
NATIONAL WEATHER SERVICE OMAHA NE
700 PM CDT SUN MAY 01 2016

NOTES: SATELLITE DATA IS BEING USED TO AUGMENT CLOUD COVER ABOVE
       12000 FEET.
       "FAIR" INDICATES FEW OR NO CLOUDS BELOW 12,000 FEET WITH NO
       SIGNIFICANT WEATHER AND/OR OBSTRUCTIONS TO VISIBILITY.

  * THESE STATIONS DO NOT REPORT WEATHER SUCH AS RAIN...SNOW OR FOG.

NEZ001>004-019>022-054>056-020100-
NEBRASKA PANHANDLE

CITY           SKY/WX    TMP DP  RH WIND       PRES   REMARKS
SCOTTSBLUFF    MOSUNNY   53  30  41 NE8       30.24S
6HR MIN TEMP:  47; 6HR MAX TEMP:  56;

ALLIANCE       MOSUNNY   44  34  67 SW5       30.21S
6HR MIN TEMP:  38; 6HR MAX TEMP:  47;

CHADRON        SUNNY     56  29  35 NE10      30.22R
6HR MIN TEMP:  50; 6HR MAX TEMP:  57;

KIMBALL        SUNNY     42  29  58 NW5       30.26R
SIDNEY         SUNNY     46  28  49 NE8       30.25R
6HR MIN TEMP:  40; 6HR MAX TEMP:  46;

$$

NEZ057>060-069>072-079>082-020100-
SOUTHWEST NEBRASKA

CITY           SKY/WX    TMP DP  RH WIND       PRES   REMARKS
NORTH PLATTE   CLOUDY    53  32  44 N12       30.19R
6HR MIN TEMP:  48; 6HR MAX TEMP:  54;

IMPERIAL       PTSUNNY   49  31  49 N12       30.23R
6HR MIN TEMP:  48; 6HR MAX TEMP:  52;

LEXINGTON      MOSUNNY   52  39  61 N8        30.18S
MCCOOK         CLOUDY    52  37  56 NE6       30.19S
6HR MIN TEMP:  48; 6HR MAX TEMP:  57;

$$

NEZ005>010-023>029-035>040-094-020100-
NORTH CENTRAL NEBRASKA

CITY           SKY/WX    TMP DP  RH WIND       PRES   REMARKS
VALENTINE      SUNNY     55  30  38 N12       30.19S
6HR MIN TEMP:  51; 6HR MAX TEMP:  57;

AINSWORTH      MOSUNNY   54  33  44 N9G23     30.18R
BROKEN BOW     PTSUNNY   54  34  46 N10       30.16S
6HR MIN TEMP:  48; 6HR MAX TEMP:  55;

ORD            PTSUNNY   52  37  56 NE14      30.16R
6HR MIN TEMP:  46; 6HR MAX TEMP:  55;

$$

NEZ041-046>049-061>064-073>077-083>087-020100-
SOUTH CENTRAL NEBRASKA

CITY           SKY/WX    TMP DP  RH WIND       PRES   REMARKS
GRAND ISLAND   CLOUDY    48  40  73 N9        30.18R
6HR MIN TEMP:  45; 6HR MAX TEMP:  52;

AURORA         CLOUDY    48  44  84 N7        30.17R
HASTINGS       CLOUDY    48  40  73 NE7       30.19R
6HR MIN TEMP:  45; 6HR MAX TEMP:  50;

HEBRON         CLOUDY    48  41  78 N7        30.16S
HOLDREGE       CLOUDY    48  40  72 NE6       30.20S
KEARNEY *      CLOUDY    48  37  66 NE9       30.19R
YORK           CLOUDY    48  43  81 N6        30.16R
$$

NEZ011>018-030>034-042>045-020100-
NORTHEAST NEBRASKA

CITY           SKY/WX    TMP DP  RH WIND       PRES   REMARKS
NORFOLK        CLOUDY    51  40  65 NE8       30.14R
6HR MIN TEMP:  44; 6HR MAX TEMP:  54;

ALBION         CLOUDY    50  41  70 NE3       30.15S
BLAIR          CLOUDY    49  44  81 N8        30.11S
COLUMBUS *     CLOUDY    50  37  62 N12       30.15S
FREMONT        CLOUDY    50  42  75 N7        30.13S
TEKAMAH        CLOUDY    52  45  77 N13       30.12S
6HR MIN TEMP:  46; 6HR MAX TEMP:  52; 6HR PCP:  0.01;

$$

NEZ050>053-065>068-078-088>093-020100-
SOUTHEAST NEBRASKA

CITY           SKY/WX    TMP DP  RH WIND       PRES   REMARKS
LINCOLN        CLOUDY    50  42  74 N8        30.16R
6HR MIN TEMP:  47; 6HR MAX TEMP:  51;

OMAHA EPPLEY   CLOUDY    50  43  77 NE3       30.12R
6HR MIN TEMP:  46; 6HR MAX TEMP:  50; 6HR PCP: TRACE;

BEATRICE       CLOUDY    48  42  81 N10       30.14F
FALLS CITY     CLOUDY    50  43  77 N8        30.11R
6HR MIN TEMP:  50; 6HR MAX TEMP:  53;

NEBRASKA CITY  CLOUDY    47  43  85 N9        30.13R
$$

NEZ044-045-051>053-067-020100-
OMAHA AREA

CITY           SKY/WX    TMP DP  RH WIND       PRES   REMARKS
OMAHA EPPLEY   CLOUDY    50  43  77 NE3       30.12R
6HR MIN TEMP:  46; 6HR MAX TEMP:  50; 6HR PCP: TRACE;

BLAIR          CLOUDY    49  44  81 N8        30.11S
FREMONT        CLOUDY    50  42  75 N7        30.13S
OFFUTT AFB     CLOUDY    49  43  81 N6        30.11S
WAHOO          CLOUDY    50  44  79 N10       30.13R
$$




USA.gov is the U.S. government's official web portal to all federal, state and local government web resources and services.